User: anonymous   Login
Location: Caltech
(34.1382°N, 118.1253°W)
Time: 13:53:28
(UTC-07:00)
Language:

SO-67 - Orbit

View from above orbital plane
View from above orbital plane
View from above satellite
View from above satellite

Ground track
Ground track

The orbit data is extracted from the following two-line orbital elements,

1 35870U 09049F   17202.25352087 +.00006584 +00000-0 +10402-3 0  9992
2 35870 097.1023 218.6613 0001354 008.4378 052.6323 15.53819377438518
Epoch (UTC): 21 July 2017 06:05:04
Eccentricity: 0.0001354
inclination: 97.1023°
perigee height: 404 km
apogee height: 406 km
right ascension of ascending node: 218.6613°
argument of perigee: 8.4378°
revolutions per day: 15.53819377
mean anomaly at epoch: 52.6323°
orbit number at epoch: 43851

The dashed part of the orbit path shows where the satellite is in the earth's shadow,  

DLR